This is the latest recevied weather packets stored in our database for station/object EB5AGF-13. If no packets are shown the sender has not sent any weather packets the latest 10 day(s).
| Time | Temp. | Humidity | Pressure | Rain* | Wind** | Luminosity | Snow |
|---|---|---|---|---|---|---|---|
| 1777903831 | 22.22° C | 66% | 1008 hPa | 0 mm | 2.24 m/s, 234° | 74 W/m² | - |
| 1777903529 | 22.22° C | 66% | 1008 hPa | 0 mm | 2.68 m/s, 228° | 505 W/m² | - |
| 1777903224 | 22.22° C | 66% | 1008.2 hPa | 0 mm | 2.24 m/s, 199° | 549 W/m² | - |
| 1777902921 | 22.22° C | 66% | 1008.3 hPa | 0 mm | 2.68 m/s, 230° | 557 W/m² | - |
| 1777902616 | 22.78° C | 66% | 1008.2 hPa | 0 mm | 2.24 m/s, 198° | 568 W/m² | - |
| 1777902313 | 22.78° C | 64% | 1008.2 hPa | 0 mm | 3.58 m/s, 171° | 577 W/m² | - |
| 1777902009 | 21.67° C | 69% | 1008.5 hPa | 0 mm | 1.34 m/s, 248° | 589 W/m² | - |
| 1777901705 | 22.22° C | 70% | 1008.3 hPa | 0 mm | 2.68 m/s, 191° | 595 W/m² | - |
| 1777901400 | 21.67° C | 70% | 1008.3 hPa | 0 mm | 4.02 m/s, 268° | 608 W/m² | - |
| 1777901097 | 22.22° C | 70% | 1008.3 hPa | 0 mm | 0.89 m/s, 229° | 615 W/m² | - |
| 1777900793 | 22.78° C | 68% | 1008.4 hPa | 0 mm | 3.13 m/s, 168° | 621 W/m² | - |
| 1777900488 | 22.78° C | 69% | 1008.3 hPa | 0 mm | 3.13 m/s, 192° | 628 W/m² | - |
| 1777900185 | 22.22° C | 65% | 1008.5 hPa | 0 mm | 3.58 m/s, 146° | 634 W/m² | - |
| 1777899881 | 22.22° C | 68% | 1008.4 hPa | 0 mm | 6.26 m/s, 221° | 642 W/m² | - |
| 1777899577 | 22.22° C | 70% | 1008.4 hPa | 0 mm | 4.47 m/s, 128° | 648 W/m² | - |
| 1777899272 | 22.22° C | 70% | 1008.7 hPa | 0 mm | 3.58 m/s, 276° | 650 W/m² | - |
| 1777898972 | 22.22° C | 70% | 1008.9 hPa | 0 mm | 2.68 m/s, 199° | 657 W/m² | - |
| 1777898672 | 22.22° C | 73% | 1008.8 hPa | 0 mm | 1.34 m/s, 97° | 659 W/m² | - |
| 1777898371 | 22.22° C | 74% | 1008.9 hPa | 0 mm | 2.68 m/s, 273° | 660 W/m² | - |
| 1777898071 | 22.22° C | 75% | 1008.9 hPa | 0 mm | 1.34 m/s, 242° | 513 W/m² | - |
| 1777897769 | 21.67° C | 77% | 1009 hPa | 0 mm | 2.68 m/s, 297° | 668 W/m² | - |
| 1777897161 | 21.67° C | 77% | 1008.9 hPa | 0 mm | 1.79 m/s, 167° | 676 W/m² | - |
| 1777896856 | 22.22° C | 77% | 1009.4 hPa | 0 mm | 1.79 m/s, 236° | 713 W/m² | - |
| 1777896552 | 22.22° C | 73% | 1009.1 hPa | 0 mm | 1.34 m/s, 34° | 524 W/m² | - |
| 1777896249 | 22.22° C | 72% | 1009 hPa | 0 mm | 1.34 m/s, 198° | 543 W/m² | - |
* Rain latest hour (hover to see other rain measurements)
** Current wind speed in m/s (hover to see current wind gust speed)